Regional Weather Roundup
Issued by NWS

Home | Current Version | Previous Version | Text Only | Print | Product List | Glossary Off
Versions: 1 2 3 4 5 6 7 8 9 10 11 12 13 14 15 16 17 18 19 20 21 22 23 24 25 26 27 28 29 30 31 32 33 34 35 36 37 38 39 40 41 42 43 44 45 46 47 48 49 50

000
ASUS45 KPSR 112110
RWRAZ

ARIZONA HOURLY REGIONAL WEATHER ROUNDUP
NATIONAL WEATHER SERVICE PHOENIX AZ
200 PM MST THU FEB 11 2016

NOTE: FAIR INDICATES FEW OR NO CLOUDS BELOW 12,000 FEET WITH NO
SIGNIFICANT WEATHER AND/OR OBSTRUCTIONS TO VISIBILITY.

AZZ001>003-036-112200-
NORTHWEST ARIZONA

CITY           SKY/WX    TMP DP  RH WIND       PRES   REMARKS
BULLHEAD CITY  FAIR      75  27  16 N18G25    30.14F
KINGMAN        FAIR      72  23  16 N6        30.23F
$$

AZZ004>008-015-016-018-112200-
NORTH CENTRAL ARIZONA

CITY           SKY/WX    TMP DP  RH WIND       PRES   REMARKS
GRAND CANYON   FAIR      65  20  17 VRB6      30.35F
WILLIAMS       FAIR      64  18  16 VRB7G15   30.40F
PRESCOTT       FAIR      73   7   7 VRB5      30.27F
FLAGSTAFF      FAIR      58  16  19 E6        30.36F
PAYSON         FAIR      72  12  10 SW7G14    30.28F
PAGE           FAIR      53  30  41 NE7       30.34F
$$

AZZ009>014-017-112200-
NORTHEAST ARIZONA

CITY           SKY/WX    TMP DP  RH WIND       PRES   REMARKS
WINSLOW        FAIR      60  21  22 NE3       30.32F
SAINT JOHNS    FAIR      61  15  16 W7        30.32F
WINDOW ROCK    FAIR      63   0   8 N6        30.34F
SHOW LOW       FAIR      57  16  19 CALM      30.36F
$$

AZZ023-112200-
GREATER PHOENIX AREA

CITY           SKY/WX    TMP DP  RH WIND       PRES   REMARKS
PHOENIX        FAIR      82  27  13 SE5       30.09F
BUCKEYE        FAIR      77  36  22 SE7       30.13F
GLENDALE       SUNNY     79  32  18 VRB5      30.12F
LUKE AFB       FAIR      79  29  16 VRB5      30.09F
DEER VALLEY    FAIR      77  29  17 MISG      30.11F
SCOTTSDALE     FAIR      79  29  16 SW3       30.12F
MESA-FALCON    SUNNY    N/A N/A N/A CALM      30.11F
MESA-GATEWAY   SUNNY     75  30  19 W5        30.12F
CHANDLER       SUNNY     77  28  16 VRB6      30.11F
$$

AZZ027-028-112200-
SOUTHWEST MARICOPA COUNTY AND PINAL COUNTY

CITY           SKY/WX    TMP DP  RH WIND       PRES   REMARKS
CASA GRANDE    FAIR      79  28  15 CALM      30.12F
$$

AZZ503-504-507>509-112200-
SOUTHEAST ARIZONA

CITY           SKY/WX    TMP DP  RH WIND       PRES   REMARKS
TUCSON         FAIR      80  19  10 CALM      30.16F
RYAN FIELD     SUNNY     82  25  12 N5        30.15F
NOGALES        FAIR      80  10   7 NW7       30.19F
SIERRA VISTA   FAIR      76   7   7 VRB1      30.25S
DOUGLAS        FAIR      75  12   9 CALM      30.22F
SAFFORD        FAIR      71  23  16 NW6       30.18F
$$

AZZ020-021-025-026-031-112200-
SOUTHWEST ARIZONA

CITY           SKY/WX    TMP DP  RH WIND       PRES   REMARKS
YUMA           FAIR      84  24  11 NE10      30.09F
$$

CAZ031-033-041-043-047-048-061-112200-
SOUTHERN CALIFORNIA

CITY           SKY/WX    TMP DP  RH WIND       PRES   REMARKS
DOWNTOWN L.A.  FAIR      87  28  12 SE6       30.06F
L.A. AIRPORT   FAIR      76  40  27 W10       30.07F
SAN DIEGO      FAIR      83  21  10 NW8       30.07F
BURBANK        FAIR      84  25  11 CALM      30.08F
ONTARIO        FAIR      83  24  11 VRB3      30.09F
RIVERSIDE      FAIR      86  25  11 VRB6      30.08F
PALM SPRINGS   FAIR      84  25  11 E6        30.12F
EL CENTRO NAS  FAIR      84  25  11 E3        30.11F
IMPERIAL       FAIR      83  25  12 N6        30.09F
BLYTHE           N/A     80  33  18 MISG      30.12F
NEEDLES        FAIR      78  28  16 N8        30.15F
$$

NVZ020-UTZ003-112200-
SOUTHERN NEVADA-UTAH

CITY           SKY/WX    TMP DP  RH WIND       PRES   REMARKS
LAS VEGAS      FAIR      69  22  16 VRB3      30.18F
SALT LAKE CITY CLOUDY    32  27  81 CALM      30.45F HAZE
$$

NMZ009-TXZ055-112200-
NEW MEXICO-WEST TEXAS

CITY           SKY/WX    TMP DP  RH WIND       PRES   REMARKS
ALBUQUERQUE    MOSUNNY   63  16  16 CALM      30.28F
EL PASO        FAIR      70  18  13 VRB6      30.21F
$$


........................KEY........................
SKY/WX - SKY CONDITION/WEATHER
TMP    - TEMPERATURE IN FAHRENHEIT
DP     - DEW POINT IN FAHRENHEIT
RH     - RELATIVE HUMIDITY IN PERCENT
WIND   - DIRECTION AND SPEED IN MILES PER HOUR (MPH)
VRB    - VARIABLE WIND DIRECTION
PRES   - MEAN SEA LEVEL PRESSURE IN INCHES OF MERCURY
         F - FALLING PRESSURE   R - RISING PRESSURE
         S - STEADY PRESSURE
VSB    - VISIBILITY IN MILES
HX     - HEAT INDEX IN FAHRENHEIT
WCI    - WIND CHILL INDEX IN FAHRENHEIT
TC     - TEMPERATURE IN CELSIUS WHICH IS ALSO KNOWN AS
         TEMPERATURE IN CENTIGRADE
AFB    - AIR FORCE BASE
         LUKE AFB IS LUKE AIR FORCE BASE
         DAVIS-MONTHAN IS DAVIS-MONTHAN AIR FORCE BASE
NAS    - NAVAL AIR STATION
         EL CENTRO NAS IS EL CENTRO NAVAL AIR STATION
N/A    - NOT AVAILABLE




USA.gov is the U.S. government's official web portal to all federal, state and local government web resources and services.